RH
35 29 40 27 26 26 21 20 20 19 21 22 24 28 32 34 35 42 42 38 32 29 47 45 44 39 35 32 35 52 48 55 62 88 93 91 80 57 57 62 74 73 56 70 40
40 40 28 38 32 30 28 26 24 21 20 23 24 26 29 37 35 44 47 44 41 32 39 47 44 49 36 36 35 47 47 55 78 98 98 98 61 59 51 57 79 70 51 32 32
57 55 49 40 29 32 33 39 62 65 24 24 24 29 28 34 44 63 60 49 42 37 40 38 45 48 51 36 44 51 45 58 64 89 92 63 57 54 51 59 80 54 37 32 30
48 53 62 61 47 31 45 34 34 54 65 46 62 24 29 30 43 48 56 61 60 42 44 41 53 49 56 44 48 48 48 51 49 34 33 59 50 49 51 58 68 66 37 33 31
48 49 56 66 70 46 42 60 40 63 84 94 40 42 46 33 36 41 47 51 86 50 46 45 44 54 57 59 43 49 54 46 36 34 27 37 38 36 38 47 41 30 28 34 29
54 54 56 54 61 71 56 43 50 69 71 82 89 90 78 60 53 35 39 51 84 82 48 48 47 52 52 58 58 48 53 40 31 22 26 23 28 30 37 48 41 27 33 35 31
66 65 64 59 57 59 67 74 64 53 39 62 51 89 78 65 67 38 34 44 60 68 45 46 44 45 61 61 61 55 44 52 36 28 29 25 22 23 48 51 44 36 36 31 26
52 59 66 74 89 66 62 74 81 79 60 51 46 58 52 70 71 48 32 51 61 85 58 54 46 56 71 79 66 64 52 36 43 35 30 29 24 38 51 42 38 40 27 28 20
46 55 63 72 90 91 94 86 84 83 90 79 59 50 48 51 56 52 41 40 54 86 40 38 46 52 67 82 85 68 59 46 43 45 39 25 21 48 38 30 30 25 21 21 18
55 47 69 76 85 89 88 97 94 78 85 84 73 62 45 46 49 60 43 36 39 73 76 40 51 70 61 65 70 73 61 61 44 52 47 43 23 40 36 21 27 21 24 18 18
66 62 53 66 89 99 98 96 97 88 56 50 58 62 68 60 53 47 37 52 82 68 65 52 41 46 50 60 93 69 65 80 93 86 96 40 28 38 56 24 26 36 20 23 20
76 83 71 57 69 100 97 96 96 97 90 65 64 52 80 84 69 51 41 46 77 67 66 65 34 35 43 78 89 82 69 67 80 87 88 60 34 33 38 80 26 24 28 23 20
44 82 87 74 62 72 95 81 100 98 96 83 72 70 56 100 76 64 60 51 82 92 86 59 35 38 64 81 87 88 70 71 73 82 81 66 48 31 35 44 46 43 39 31 25
19 21 63 76 67 62 65 88 100 100 97 77 81 66 63 68 64 65 71 84 76 86 92 72 54 58 76 75 81 79 87 80 84 86 77 94 60 46 36 45 44 46 45 34 28
21 22 18 34 67 55 60 76 93 99 96 76 52 66 84 74 79 86 100 94 85 90 81 57 69 69 79 64 79 89 94 95 93 96 94 74 82 60 69 75 40 42 35 36 37
10 14 22 19 25 53 37 54 95 100 97 77 57 60 69 73 76 100 98 93 85 94 84 71 87 73 63 65 89 95 97 97 100 96 68 70 82 65 75 67 75 40 49 47 37
6 6 11 18 18 20 28 21 42 94 99 89 54 62 59 80 83 98 93 94 74 80 56 78 63 62 70 78 80 97 100 94 83 81 50 81 82 56 74 81 75 63 52 42 41
12 8 6 10 15 19 23 26 18 37 99 86 78 70 70 86 74 75 94 88 76 72 100 90 74 60 71 80 80 96 93 85 81 82 78 99 67 60 92 88 75 68 56 47 51
60 34 12 6 7 13 19 28 24 21 38 81 100 100 78 89 71 74 85 76 77 81 77 80 56 94 92 88 97 94 84 90 90 92 88 83 86 80 88 100 98 78 58 60 62
91 75 35 9 5 6 11 21 26 23 19 42 100 100 76 64 66 70 76 67 70 67 79 68 90 97 94 99 85 84 100 98 90 69 68 56 67 80 86 95 90 89 77 86 76
75 100 41 47 8 17 11 14 21 24 21 27 89 100 92 74 63 73 66 65 72 67 87 95 98 96 100 71 68 82 81 83 84 60 62 66 60 75 72 73 76 80 76 79 70
90 94 64 92 64 11 8 7 17 23 24 28 91 100 99 61 51 50 48 51 63 91 89 87 95 97 90 95 89 75 74 93 70 54 53 69 62 64 83 87 91 84 80 80 73
79 79 99 100 100 65 16 15 9 17 24 22 98 89 96 68 45 38 35 43 61 98 90 93 94 96 95 95 80 72 73 78 91 86 55 73 48 90 87 87 95 75 67 69 76
96 100 100 100 100 95 43 25 18 10 19 24 63 100 100 78 51 35 32 37 49 98 94 100 92 93 74 94 91 97 87 95 97 72 67 62 79 80 88 82 81 85 83 84 88
100 95 69 60 52 53 46 24 36 9 13 23 24 80 80 98 56 33 26 31 40 65 90 98 93 99 98 90 97 97 98 97 96 74 82 87 93 100 93 95 81 68 60 69 70
86 63 54 73 100 99 86 58 35 14 13 19 27 27 96 96 73 45 30 30 24 33 73 98 88 97 95 97 98 98 97 95 87 90 83 96 82 100 95 91 87 61 45 63 64
95 87 65 93 86 100 83 65 45 31 24 19 62 30 42 70 100 63 34 67 72 59 64 99 96 96 84 98 97 87 73 100 100 90 82 80 81 99 93 85 77 66 62 56 71
Wind_Speed
59 56 55 55 53 52 51 48 47 48 46 44 42 40 39 38 36 32 32 31 29 28 23 23 19 18 17 17 16 19 18 16 15 10 19 27 37 28 20 23 19 29 31 12 10
64 63 59 60 58 56 53 49 47 50 49 47 45 44 42 39 39 38 32 32 31 29 26 26 25 20 18 17 18 20 17 16 14 20 21 31 41 27 23 22 28 22 19 21 21
67 65 63 64 63 61 59 56 57 56 52 49 49 47 46 43 40 45 35 34 33 32 30 29 28 24 20 18 19 22 19 22 26 30 39 36 34 28 26 21 24 25 23 23 20
64 63 64 66 67 63 64 57 56 59 56 54 51 50 47 47 47 47 36 38 36 33 32 29 27 27 22 19 21 24 21 26 29 34 30 34 32 29 24 23 27 31 30 18 20
69 66 64 63 65 67 66 66 59 63 68 60 52 50 47 50 47 53 41 39 36 36 34 31 32 31 21 21 23 24 24 27 30 33 32 30 30 27 23 24 27 30 24 21 23
75 74 69 67 66 66 68 67 68 68 67 62 62 62 60 56 49 56 47 42 43 37 37 36 37 36 25 23 24 25 28 29 27 29 31 30 27 26 21 24 25 28 23 24 24
80 77 76 73 70 69 69 67 69 69 68 65 63 62 63 55 52 55 53 46 41 41 41 37 41 38 36 28 24 27 29 27 28 29 30 30 29 24 20 24 26 27 29 27 30
76 75 74 72 70 69 70 70 70 71 72 71 68 72 61 55 55 58 54 48 42 46 42 42 42 43 38 33 27 26 31 30 25 29 29 33 26 22 26 27 23 28 29 29 31
80 78 74 70 74 60 69 69 71 72 72 73 74 72 67 62 63 55 55 51 50 48 44 43 45 43 42 36 33 26 28 29 26 29 32 36 26 23 32 27 26 31 30 31 33
82 81 77 75 71 69 66 61 66 70 71 73 73 72 64 62 55 53 57 53 52 51 48 46 46 49 48 42 32 26 32 28 29 26 35 37 32 34 37 33 26 33 31 33 34
88 84 80 77 74 67 70 59 74 65 73 73 69 65 65 63 60 55 57 56 55 54 54 46 50 55 47 38 32 30 30 27 19 20 34 38 39 32 35 38 32 33 36 35 36
90 87 85 82 76 72 75 71 66 68 71 72 71 69 67 70 66 59 57 60 57 55 48 52 56 49 42 40 39 37 34 31 31 33 39 41 39 39 40 37 39 36 40 37 40
89 89 88 85 80 78 74 70 77 71 78 74 74 72 70 68 68 64 61 59 60 55 54 53 48 45 50 45 43 42 37 34 33 33 44 43 47 44 42 43 41 42 40 44 39
93 91 91 89 85 79 75 77 70 67 82 78 75 70 74 73 68 71 64 63 62 60 55 53 48 54 52 46 43 43 36 37 36 39 43 43 53 48 44 46 47 45 46 50 42
99 96 95 92 89 83 79 78 77 78 80 81 77 71 73 75 63 66 64 63 61 61 60 45 48 51 54 50 44 43 37 38 40 45 46 46 54 50 44 43 49 51 52 50 46
95 97 97 97 91 85 83 82 82 87 68 82 72 73 67 63 64 64 64 59 57 60 59 51 51 50 51 52 52 42 37 43 47 47 52 45 49 54 51 49 46 53 53 51 49
97 93 100 98 93 91 91 88 94 95 87 81 75 61 61 57 50 52 61 60 58 57 55 58 54 51 48 57 53 49 46 50 53 53 54 46 48 48 48 49 46 54 54 53 45
75 88 94 98 97 98 98 98 101 100 98 73 80 77 69 60 56 55 53 49 50 59 62 58 57 54 52 61 55 53 53 50 51 52 49 44 49 35 35 47 51 57 55 50 41
52 62 86 90 97 102 107 110 108 102 96 91 67 76 70 71 65 58 55 47 46 49 53 54 53 53 50 53 53 53 54 50 49 51 53 53 45 42 36 40 46 49 47 44 39
56 57 61 81 97 107 114 115 110 104 99 92 84 78 74 79 74 68 62 47 46 46 48 46 55 53 48 54 55 48 43 48 52 52 50 48 47 46 41 42 48 49 48 47 45
59 61 50 53 91 103 115 118 111 107 100 96 81 82 68 81 83 78 74 61 47 46 44 40 52 52 53 54 55 52 50 50 51 51 50 47 44 40 42 44 47 45 48 46 43
57 67 53 56 66 102 114 115 110 108 103 99 84 65 66 91 92 86 80 72 64 47 54 48 49 51 56 52 51 53 40 40 50 51 43 42 46 46 40 43 43 46 45 45 46
60 61 63 62 69 68 99 109 115 111 108 101 82 80 74 89 91 88 82 64 61 49 49 42 54 53 55 56 59 57 52 48 48 49 46 46 47 45 44 44 44 47 49 50 51
59 66 68 68 66 59 73 100 108 113 111 108 91 55 79 86 92 88 82 67 60 51 44 47 58 58 62 60 60 53 53 48 44 47 46 45 43 45 45 48 49 50 52 52 53
67 72 69 71 64 56 51 84 98 113 115 111 107 88 68 69 89 88 82 78 65 68 59 46 51 54 53 56 53 51 44 44 45 43 48 44 46 44 49 49 50 52 52 54 55
63 63 64 65 61 55 46 62 88 104 108 113 108 98 71 69 80 83 79 77 70 68 60 54 46 39 39 28 40 29 31 40 47 46 51 52 51 47 48 49 52 56 53 51 48
55 60 63 55 56 54 44 40 66 90 101 108 94 98 107 78 71 80 79 68 62 60 62 57 56 48 42 42 39 45 42 49 45 41 44 46 38 40 43 43 45 43 42 46 47
Wind_Direction
253 250 254 253 253 253 253 251 255 257 258 259 260 260 264 269 274 277 282 290 297 301 306 295 290 278 267 258 248 241 237 234 224 239 262 245 257 260 256 274 262 239 246 275 286
250 250 249 251 254 253 253 253 256 258 257 257 259 260 261 264 268 274 276 284 290 292 299 299 290 284 270 258 246 235 230 220 173 236 221 238 257 259 261 265 272 261 246 260 265
252 250 250 251 250 253 252 252 253 251 257 256 256 258 259 261 263 269 268 275 282 287 292 298 291 285 274 258 247 235 229 220 201 230 228 243 259 254 262 257 254 255 237 248 251
249 250 251 249 249 249 251 253 250 251 252 251 258 258 258 259 260 265 267 268 275 281 285 291 294 284 280 261 248 241 234 233 228 238 243 243 253 257 255 250 241 244 252 241 244
248 248 250 249 250 249 251 251 247 254 259 256 254 257 259 259 260 264 263 264 269 274 279 283 285 286 281 272 251 247 240 237 237 240 249 248 252 257 253 242 240 247 249 253 249
248 250 249 249 250 250 250 249 252 250 252 255 253 249 254 258 260 260 259 258 264 267 271 277 282 285 275 278 266 248 242 243 243 245 247 250 250 252 246 244 238 244 243 248 246
248 249 250 248 247 248 250 250 251 250 251 251 249 252 260 264 258 257 258 259 257 265 267 272 272 276 284 272 276 260 250 244 243 244 247 250 249 252 246 241 234 238 241 240 241
246 246 246 247 251 247 248 249 249 250 251 252 252 256 265 262 255 253 255 254 255 255 262 264 268 275 280 274 272 268 255 250 247 248 247 248 247 246 242 238 230 237 237 236 238
248 244 243 244 243 242 252 251 250 251 250 251 253 254 262 258 254 254 253 254 253 260 259 259 263 270 275 278 276 273 265 255 243 249 249 250 246 241 245 242 241 239 237 236 239
244 245 242 240 241 241 245 245 253 252 252 251 251 253 254 256 254 252 251 251 252 259 251 253 257 266 265 277 283 265 261 247 247 244 249 247 241 243 241 244 234 244 243 245 249
247 245 242 242 241 238 233 240 244 245 251 249 252 255 257 258 257 253 250 251 253 251 248 253 257 260 266 277 271 252 258 248 245 250 256 245 245 229 247 249 234 244 247 249 253
245 245 244 242 240 235 235 234 243 250 255 250 251 251 252 255 254 248 243 249 251 253 256 251 251 258 266 269 270 242 250 250 250 231 236 253 249 247 242 242 252 245 246 249 252
244 242 243 241 238 238 235 233 237 248 253 252 250 249 248 247 251 251 250 249 252 248 251 243 256 257 261 264 265 252 246 252 256 249 254 255 250 246 244 250 256 257 263 258 248
243 243 241 241 240 237 237 235 240 240 255 253 248 251 244 243 240 246 243 244 246 250 251 250 246 255 260 260 264 251 251 255 254 255 252 250 255 249 247 250 251 253 253 257 258
242 240 241 240 239 237 235 235 239 244 245 245 248 250 244 242 243 246 251 252 249 248 247 251 254 254 262 266 268 256 253 253 257 253 256 251 252 251 245 246 248 251 256 261 265
244 242 238 238 236 235 234 233 235 240 244 245 244 243 242 244 241 242 245 244 243 244 248 247 246 244 249 254 259 254 252 251 250 254 257 255 256 255 246 246 252 253 251 257 263
248 243 238 235 234 231 231 230 231 229 239 242 240 238 236 233 236 242 245 235 246 246 247 249 248 248 249 254 252 249 244 248 251 250 261 260 261 266 255 254 256 262 261 259 261
247 240 239 234 232 230 228 227 228 229 232 242 240 240 237 239 240 244 239 239 245 246 246 247 249 245 243 252 255 256 253 257 254 259 268 262 258 264 261 257 254 254 262 266 271
251 243 234 230 226 229 227 226 226 226 231 230 239 244 242 239 240 246 241 242 247 250 251 256 253 245 246 249 251 253 249 256 259 257 258 260 256 253 245 248 253 260 266 269 268
250 251 240 226 223 221 225 225 227 226 227 231 236 239 244 243 242 240 243 240 246 250 257 252 245 241 244 245 248 243 245 240 249 253 252 257 247 245 252 249 259 260 266 267 267
249 245 242 239 224 221 220 226 225 226 224 225 231 236 236 241 244 247 246 247 252 252 256 249 237 234 238 238 240 234 234 239 243 250 248 251 255 254 253 257 257 259 259 262 265
249 243 237 237 240 226 222 221 224 223 225 222 224 224 233 243 244 243 243 242 251 255 247 248 235 230 234 235 239 244 235 242 246 249 251 255 256 258 250 252 259 264 268 271 272
242 239 234 229 237 238 227 221 219 218 220 221 224 229 230 236 238 239 240 244 245 246 239 238 232 229 228 227 233 236 239 235 238 243 245 245 249 245 251 255 260 265 269 272 276
232 224 229 229 232 238 234 226 220 216 217 218 214 219 221 230 234 237 241 241 239 243 248 248 244 235 229 230 233 234 235 241 241 243 247 251 250 257 260 262 263 263 264 267 268
217 219 231 231 236 246 249 232 224 217 215 217 216 217 220 222 230 232 238 242 237 242 251 241 239 231 228 231 238 239 235 240 244 246 248 253 257 263 267 267 264 265 264 265 268
217 223 228 231 231 238 248 234 230 221 216 215 216 216 209 224 232 235 234 239 239 241 242 230 238 221 215 228 230 229 244 243 239 243 251 256 257 261 258 262 266 268 268 273 274
213 220 225 227 230 233 243 254 235 225 217 215 213 214 219 226 228 236 234 238 243 240 237 222 222 214 229 255 266 259 245 245 254 258 260 260 267 274 267 261 260 264 269 270 271